This demonstration page uses our WeatherBlox Daily Observations layout. Learn more.

Left ArrowRight Arrow

39.08367, -84.50855

Hourly Observations for December 26, 2015

Temp ( °F °C ) Dew Point ( °F °C ) Humidity (%) Winds ( mph kmh ) Pressure ( in mb ) Visibility ( mi km ) Precip ( " mm )
12:15 am 00:15 Cloudy 48 8.9 40 4.4 74 74 NE 9 15 30.27 1025 10 16 0.00 0.00
12:53 am 00:53 Cloudy 48 8.9 40 4.4 74 74 NE 9 15 30.26 1025 10 16 0.00 0.00
1:53 am 01:53 Cloudy 47 8.3 40 4.4 77 77 NE 9 15 30.26 1025 10 16 0.00 0.00
2:53 am 02:53 Cloudy 46 7.8 42 5.6 86 86 ENE 8 13 30.25 1024 10 16 0.00 0.03
3:21 am 03:21 Cloudy 46 7.8 43 6.1 89 89 ENE 9 15 30.27 1025 10 16 0.00 0.00
3:53 am 03:53 Cloudy 46 7.8 43 6.1 89 89 NE 7 11 30.26 1025 10 16 0.00 0.00
4:53 am 04:53 Cloudy 45 7.2 43 6.1 93 93 NE 6 9 30.26 1025 10 16 0.01 0.25
5:53 am 05:53 Cloudy 45 7.2 43 6.1 93 93 NE 7 11 30.25 1024 10 16 0.00 0.00
6:32 am 06:32 Cloudy 46 8 43 6 87 87 E 5 7 30.24 1024 10 16 0.00 0.00
6:53 am 06:53 Cloudy 46 7.8 44 6.7 93 93 ENE 3 6 30.24 1024 10 16 0.00 0.00
7:53 am 07:53 Cloudy 46 7.8 44 6.7 93 93 NE 5 7 30.24 1024 9 14 0.00 0.00
8:53 am 08:53 Cloudy with Mist and Fog 46 7.8 45 7.2 96 96 NE 5 7 30.24 1024 6 10 0.00 0.00
9:53 am 09:53 Cloudy with Mist and Fog 48 8.9 46 7.8 93 93 NE 3 6 30.23 1024 5 8 0.00 0.00
10:53 am 10:53 Cloudy 49 9.4 47 8.3 93 93 N 3 6 30.23 1024 7 11 0.00 0.00
11:22 am 11:22 Cloudy with Mist and Fog 48 8.9 48 8.9 100 100 Calm 30.21 1023 2 3 0.00 0.03
11:53 am 11:53 Cloudy with Light Rain 49 9.4 49 9.4 100 100 Calm 30.21 1023 2 3 0.01 0.25
12:16 pm 12:16 Cloudy with Light Rain 48 9 48 9 100 100 Calm 30.18 1022 3 5 0.00 0.00
12:53 pm 12:53 Cloudy with Light Rain 50 10 49 9.4 96 96 Calm 30.17 1022 4 6 0.02 0.51
1:53 pm 13:53 Cloudy with Mist and Fog 51 10.6 51 10.6 100 100 Calm 30.14 1021 6 10 0.00 0.03
2:53 pm 14:53 Cloudy with Light Rain 53 11.7 53 11.7 100 100 Calm 30.12 1020 5 8 0.03 0.76
3:53 pm 15:53 Cloudy with Light Rain 54 12.2 54 12.2 100 100 Calm 30.09 1019 4 6 0.10 2.54
4:53 pm 16:53 Cloudy with Light Rain 55 12.8 55 12.8 100 100 Calm 30.08 1019 4 6 0.01 0.25
4:58 pm 16:58 Cloudy with Light Rain 55 13 55 13 100 100 WNW 3 6 30.09 1019 3 5 0.00 0.00
5:05 pm 17:05 Cloudy with Heavy Rain 56 13.3 56 13.3 100 100 SW 3 6 30.09 1019 3 5 0.10 2.54
5:34 pm 17:34 Cloudy with Light Rain 56 13.3 56 13.3 100 100 Calm 30.09 1019 5 8 0.17 4.32
5:53 pm 17:53 Cloudy with Light Rain 56 13.3 56 13.3 100 100 SSE 3 6 30.09 1019 3 5 0.21 5.33
6:00 pm 18:00 Cloudy with Light Rain 59 15 59 15 100 100 S 6 9 30.09 1019 3 5 0.01 0.25
6:53 pm 18:53 Cloudy 60 15.6 59 15 96 96 VRB 3 6 30.06 1018 10 16 0.02 0.51
7:53 pm 19:53 Cloudy 59 15 59 15 100 100 WSW 3 6 30.06 1018 10 16 0.00 0.03
8:53 pm 20:53 Partly Cloudy with Mist and Fog 56 13.3 56 13.3 100 100 Calm 30.04 1017 6 10 0.00 0.00
9:14 pm 21:14 Partly Cloudy with Fog 55 13 55 13 100 100 Calm 30.03 1017 3 4 0.00 0.00
9:25 pm 21:25 Mostly Clear with Fog 55 12.8 55 12.8 100 100 Calm 30.03 1017 2 3 0.00 0.00
9:39 pm 21:39 Mostly Cloudy with Fog 54 12.2 54 12.2 100 100 Calm 30.03 1017 1 1 0.00 0.00
9:53 pm 21:53 Mostly Cloudy with Fog 55 12.8 55 12.8 100 100 Calm 30.02 1017 1 1 0.00 0.00
10:15 pm 22:15 Cloudy with Mist and Fog 54 12.2 54 12.2 100 100 Calm 30.03 1017 2 2 0.00 0.00
10:22 pm 22:22 Cloudy with Mist and Fog 55 12.8 55 12.8 100 100 Calm 30.00 1016 3 5 0.00 0.00
10:53 pm 22:53 Cloudy 55 12.8 55 12.8 100 100 Calm 30.01 1016 10 16 0.00 0.00
11:53 pm 23:53 Cloudy 57 13.9 57 13.9 100 100 SSW 5 7 30.00 1016 10 16 0.00 0.00

Powered by AerisWeather